CZ-2D DEB (43487 NORAD) Tracking and Keplerian Element Data

This shows tracking and keplerian element data for the satellite.

Feedback or suggestion? Click here.




ElementValue
Catalog43487
NameCZ-2D DEB
Epoch Orbit420
Epoch Day181.7160375
Epoch Year2018
RAAN256.1253
Inclination97.911
Eccentricity0.0035643
Argument of Perigee158.7618
Mean Anonmoly201.508
Mean Motion14.7482954
Decay Rate2.63E-06
L11 43487U 18048D 18181.71603750 .00000263 00000-0 46475-4 0 9996
L22 43487 97.9110 256.1253 0035643 158.7618 201.5080 14.74829540 4202



Live tracking and technical data element details for CZ-2D DEB (NORAD 43487). CZ-2D DEB can be tracked NOW for your location showing map with azimuth and elevation plus other details from your city location.







IsCatalogInMostPopularTable: catalog: 43487, numindb: 989
Update: records affected: 1



GetName: 43487 CZ-2D DEB

Hit Count: updated at: Tue, 17 Sep 2024 12:05:24 GMT